TimeEST,TemperatureF,Dew PointF,Humidity,Sea Level PressureIn,VisibilityMPH,Wind Direction,Wind SpeedMPH,Gust SpeedMPH,PrecipitationIn,Events,Conditions,WindDirDegrees,DateUTC
12:15 AM,28.4,17.6,64,30.41,10.0,SSW,4.6,-,N/A,,Scattered Clouds,210,2013-12-01 05:15:00
12:35 AM,28.4,15.8,59,30.40,10.0,SSW,3.5,-,N/A,,Mostly Cloudy,200,2013-12-01 05:35:00
12:55 AM,28.4,19.4,69,30.39,10.0,Calm,Calm,-,N/A,,Overcast,0,2013-12-01 05:55:00
1:15 AM,28.4,15.8,59,30.38,10.0,Calm,Calm,-,N/A,,Overcast,0,2013-12-01 06:15:00
1:35 AM,28.4,19.4,69,30.38,10.0,Calm,Calm,-,N/A,,Overcast,0,2013-12-01 06:35:00
1:55 AM,28.4,17.6,64,30.37,10.0,Calm,Calm,-,N/A,,Overcast,0,2013-12-01 06:55:00
2:15 AM,28.4,17.6,64,30.36,10.0,Calm,Calm,-,N/A,,Overcast,0,2013-12-01 07:15:00
2:35 AM,28.4,21.2,74,30.35,10.0,Calm,Calm,-,N/A,,Overcast,0,2013-12-01 07:35:00
2:55 AM,28.4,17.6,64,30.34,10.0,Calm,Calm,-,N/A,,Overcast,0,2013-12-01 07:55:00
3:15 AM,28.4,21.2,74,30.33,10.0,Calm,Calm,-,N/A,,Overcast,0,2013-12-01 08:15:00
3:35 AM,28.4,21.2,74,30.32,10.0,Calm,Calm,-,N/A,,Overcast,0,2013-12-01 08:35:00
3:55 AM,28.4,17.6,64,30.31,10.0,Calm,Calm,-,N/A,,Overcast,0,2013-12-01 08:55:00
4:15 AM,28.4,24.8,86,30.30,10.0,Calm,Calm,-,N/A,,Overcast,0,2013-12-01 09:15:00
4:35 AM,28.4,21.2,74,30.30,10.0,Calm,Calm,-,N/A,,Overcast,0,2013-12-01 09:35:00
4:55 AM,30.2,19.4,64,30.29,10.0,Calm,Calm,-,N/A,,Overcast,0,2013-12-01 09:55:00
5:15 AM,28.4,24.8,86,30.29,10.0,Calm,Calm,-,N/A,,Overcast,0,2013-12-01 10:15:00
5:35 AM,30.2,21.2,69,30.29,10.0,Calm,Calm,-,N/A,,Overcast,0,2013-12-01 10:35:00
5:55 AM,30.2,21.2,69,30.28,10.0,Calm,Calm,-,N/A,,Overcast,0,2013-12-01 10:55:00
6:15 AM,30.2,24.8,80,30.27,10.0,Calm,Calm,-,N/A,,Overcast,0,2013-12-01 11:15:00
6:35 AM,30.2,23.0,75,30.27,9.0,Calm,Calm,-,N/A,,Overcast,0,2013-12-01 11:35:00
6:55 AM,30.2,21.2,69,30.27,7.0,Calm,Calm,-,N/A,,Overcast,0,2013-12-01 11:55:00
7:15 AM,30.2,24.8,80,30.27,4.0,Calm,Calm,-,N/A,,Overcast,0,2013-12-01 12:15:00
7:35 AM,30.2,24.8,80,30.26,3.0,Calm,Calm,-,N/A,,Overcast,0,2013-12-01 12:35:00
7:55 AM,30.2,24.8,80,30.26,9.0,Calm,Calm,-,N/A,,Overcast,0,2013-12-01 12:55:00
8:15 AM,30.2,26.6,86,30.26,10.0,Calm,Calm,-,N/A,,Overcast,0,2013-12-01 13:15:00
8:35 AM,30.2,28.4,93,30.26,9.0,Calm,Calm,-,N/A,,Overcast,0,2013-12-01 13:35:00
8:55 AM,30.2,26.6,86,30.26,4.0,Calm,Calm,-,N/A,,Overcast,0,2013-12-01 13:55:00
9:15 AM,32.0,26.6,80,30.26,10.0,Calm,Calm,-,N/A,,Overcast,0,2013-12-01 14:15:00
9:35 AM,33.8,28.4,81,30.25,4.0,Calm,Calm,-,N/A,,Overcast,0,2013-12-01 14:35:00
9:55 AM,33.8,30.2,87,30.25,10.0,Calm,Calm,-,N/A,,Overcast,0,2013-12-01 14:55:00
10:15 AM,33.8,28.4,81,30.24,10.0,Calm,Calm,-,N/A,,Overcast,0,2013-12-01 15:15:00
10:35 AM,33.8,28.4,81,30.23,10.0,Calm,Calm,-,N/A,,Overcast,0,2013-12-01 15:35:00
10:55 AM,33.8,28.4,81,30.22,10.0,Calm,Calm,-,N/A,,Overcast,0,2013-12-01 15:55:00
11:15 AM,33.8,30.2,87,30.21,10.0,Calm,Calm,-,N/A,,Overcast,0,2013-12-01 16:15:00
11:35 AM,33.8,30.2,87,30.21,10.0,East,3.5,-,N/A,,Overcast,100,2013-12-01 16:35:00
11:55 AM,33.8,28.4,81,30.20,10.0,Calm,Calm,-,N/A,,Overcast,0,2013-12-01 16:55:00
12:15 PM,33.8,30.2,87,30.19,9.0,NE,3.5,-,N/A,,Overcast,50,2013-12-01 17:15:00
12:35 PM,33.8,28.4,81,30.18,3.0,Calm,Calm,-,N/A,,Overcast,0,2013-12-01 17:35:00
12:55 PM,33.8,32.0,93,30.17,2.0,NE,3.5,-,N/A,,Overcast,50,2013-12-01 17:55:00
1:15 PM,33.8,32.0,93,30.17,1.8,Calm,Calm,-,0.01,,Overcast,0,2013-12-01 18:15:00
1:35 PM,33.8,30.2,87,30.16,1.8,ENE,5.8,-,0.02,,Overcast,70,2013-12-01 18:35:00
1:55 PM,33.8,30.2,87,30.15,5.0,Calm,Calm,-,0.02,,Overcast,0,2013-12-01 18:55:00
2:15 PM,33.8,30.2,87,30.15,2.5,NE,3.5,-,N/A,,Overcast,40,2013-12-01 19:15:00
2:35 PM,33.8,30.2,87,30.14,3.0,NNE,3.5,-,N/A,,Overcast,20,2013-12-01 19:35:00
2:55 PM,33.8,33.8,100,30.13,2.0,NE,4.6,-,0.01,,Overcast,40,2013-12-01 19:55:00
3:15 PM,33.8,32.0,93,30.13,4.0,NNE,4.6,-,N/A,,Overcast,30,2013-12-01 20:15:00
3:35 PM,33.8,30.2,87,30.13,3.0,NE,3.5,-,N/A,,Overcast,40,2013-12-01 20:35:00
3:55 PM,33.8,30.2,87,30.12,3.0,NNE,4.6,-,N/A,,Overcast,20,2013-12-01 20:55:00
4:15 PM,33.8,30.2,87,30.12,3.0,North,3.5,-,N/A,,Overcast,10,2013-12-01 21:15:00
4:35 PM,33.8,30.2,87,30.11,2.5,NNE,4.6,-,N/A,,Overcast,30,2013-12-01 21:35:00
4:55 PM,33.8,32.0,93,30.11,2.5,North,4.6,-,N/A,,Overcast,10,2013-12-01 21:55:00
5:15 PM,33.8,32.0,93,30.11,3.0,North,4.6,-,0.02,,Overcast,10,2013-12-01 22:15:00
5:35 PM,33.8,30.2,87,30.10,2.5,NNW,3.5,-,0.02,,Overcast,340,2013-12-01 22:35:00
5:55 PM,33.8,30.2,87,30.10,2.5,NNE,6.9,-,0.06,,Overcast,20,2013-12-01 22:55:00
6:15 PM,33.8,28.4,81,30.10,5.0,North,5.8,-,0.03,,Overcast,360,2013-12-01 23:15:00
6:35 PM,33.8,28.4,81,30.10,5.0,North,5.8,-,0.05,,Overcast,10,2013-12-01 23:35:00
6:55 PM,33.8,32.0,93,30.09,5.0,North,6.9,-,0.06,,Overcast,10,2013-12-01 23:55:00
7:15 PM,33.8,30.2,87,30.09,5.0,North,5.8,-,0.01,,Overcast,360,2013-12-02 00:15:00
7:35 PM,33.8,30.2,87,30.08,8.0,North,8.1,-,0.02,,Overcast,10,2013-12-02 00:35:00
7:55 PM,33.8,28.4,81,30.08,8.0,North,8.1,-,0.03,,Overcast,10,2013-12-02 00:55:00
8:15 PM,33.8,30.2,87,30.07,6.0,North,6.9,-,N/A,,Overcast,360,2013-12-02 01:15:00
8:35 PM,33.8,33.8,100,30.07,6.0,North,8.1,-,N/A,,Overcast,360,2013-12-02 01:35:00
8:55 PM,33.8,30.2,87,30.06,5.0,NNE,8.1,-,N/A,,Overcast,20,2013-12-02 01:55:00
9:15 PM,33.8,30.2,87,30.06,3.0,North,8.1,-,N/A,,Overcast,360,2013-12-02 02:15:00
9:35 PM,33.8,30.2,87,30.05,5.0,North,8.1,-,N/A,,Overcast,360,2013-12-02 02:35:00
9:55 PM,33.8,30.2,87,30.05,6.0,North,9.2,-,N/A,,Overcast,10,2013-12-02 02:55:00
10:15 PM,33.8,32.0,93,30.05,7.0,North,10.4,-,N/A,,Overcast,360,2013-12-02 03:15:00
10:35 PM,33.8,30.2,87,30.04,5.0,North,10.4,-,N/A,,Overcast,10,2013-12-02 03:35:00
10:55 PM,33.8,30.2,87,30.04,5.0,North,10.4,-,N/A,,Overcast,10,2013-12-02 03:55:00
11:15 PM,33.8,28.4,81,30.03,5.0,North,8.1,-,0.01,,Overcast,360,2013-12-02 04:15:00
11:35 PM,33.8,32.0,93,30.03,4.0,North,8.1,-,0.01,,Overcast,360,2013-12-02 04:35:00
11:55 PM,33.8,30.2,87,30.03,4.0,North,10.4,-,0.01,,Overcast,360,2013-12-02 04:55:00